Regional Weather Roundup
Issued by NWS Goodland, KS

Current Version | Previous Version | Text Only | Print | Product List | Glossary On
Versions: 1 2 3 4 5 6 7 8 9 10 11 12 13 14 15 16 17 18 19 20 21 22 23 24 25 26 27 28 29 30 31 32 33 34 35 36 37 38 39 40 41 42 43 44 45 46 47 48 49 50
000
ASUS43 KGLD 180208
RWRGLD

GOODLAND FORECAST AREA HOURLY WEATHER ROUNDUP
NATIONAL WEATHER SERVICE GOODLAND KS
800 PM MDT THU AUG 17 2017

...OFFICIAL OBSERVATIONS...

CITY           SKY/WX    TMP DP  RH WIND       PRES   REMARKS
GOODLAND KS    CLEAR     73  63  70 CALM      30.00R
HILL CITY KS   CLEAR     76  57  51 E6        29.96R
IMPERIAL NEB   CLOUDY    67  60  78 SE9       29.98R
MCCOOK NEB     LGT RAIN  73  57  57 W30G38    29.99R
AKRON CO       CLEAR     74  45  35 S7        30.05R
BURLINGTON CO  CLEAR     71  52  50 NW7       30.03S
LIMON CO       CLOUDY    63  53  70 CALM      30.14R
$$

...UNOFFICIAL OBSERVATIONS...

CITY           SKY/WX    TMP DP  RH WIND       PRES   REMARKS
LENORA KS        N/A     73  32  22 SE7         N/A
NORTON KS      CLEAR     79  46  31 SE6       29.95S
SHARON SPRINGS   N/A     69  64  85 SE13G20     N/A
TRENTON NEB      N/A     64  32  30 CALM        N/A
KIT CARSON CO    N/A     72  50  45 CALM        N/A
YUMA CO        FAIR      68  45  42 S9        30.02R
$$



USA.gov is the U.S. government's official web portal to all federal, state and local government web resources and services.